| time (UTC) | temp F | wind direction | speed knots | gust knots | rain 1hr in | rain 24hr in | rain mn in | humidity % | barometer mb |
| 20260901202516 | 82 | 45 | 3.5 | 4.3 | 0.00 | 0.01 | 0.01 | 75 | 1013.9 |
| 20260901201557 | 82 | 68 | 0.9 | 3.5 | 0.00 | 0.01 | 0.01 | 77 | 1014.1 |
| 20260901200516 | 82 | 68 | 0.9 | 2.6 | 0.00 | 0.01 | 0.01 | 73 | 1014.2 |
| 20260901195516 | 82 | 68 | 1.7 | 3.5 | 0.00 | 0.01 | 0.01 | 77 | 1014.3 |
| 20260901194516 | 82 | 68 | 0.9 | 4.3 | 0.00 | 0.01 | 0.01 | 77 | 1014.2 |
| 20260901193556 | 82 | 90 | 0.9 | 3.5 | 0.00 | 0.01 | 0.01 | 76 | 1014.2 |
| 20260901192516 | 82 | 90 | 1.7 | 4.3 | 0.00 | 0.01 | 0.01 | 77 | 1014.1 |
| 20260901191537 | 82 | 68 | 2.6 | 6.1 | 0.00 | 0.01 | 0.01 | 77 | 1014.2 |
| 20260901190516 | 82 | 68 | 1.7 | 3.5 | 0.00 | 0.01 | 0.01 | 77 | 1014.3 |
| 20260901185536 | 81 | 90 | 2.6 | 4.3 | 0.00 | 0.01 | 0.01 | 76 | 1014.3 |
| 20260901184516 | 81 | 90 | 0.9 | 2.6 | 0.00 | 0.01 | 0.01 | 79 | 1014.5 |
| 20260901183516 | 81 | 90 | 0.9 | 3.5 | 0.00 | 0.01 | 0.01 | 77 | 1014.6 |
| 20260901182516 | 82 | 135 | 0.9 | 2.6 | 0.00 | 0.01 | 0.01 | 75 | 1014.8 |
| 20260901181516 | 82 | 0.0 | 2.6 | 0.00 | 0.01 | 0.01 | 72 | 1015.0 | |
| 20260901180517 | 81 | 0.0 | 0.9 | 0.00 | 0.01 | 0.01 | 74 | 1015.0 | |
| 20260901175516 | 81 | 135 | 0.9 | 2.6 | 0.00 | 0.01 | 0.01 | 73 | 1015.1 |
| 20260901174515 | 81 | 135 | 1.7 | 4.3 | 0.00 | 0.01 | 0.01 | 75 | 1015.3 |
| 20260901173516 | 81 | 113 | 1.7 | 5.2 | 0.00 | 0.01 | 0.01 | 73 | 1014.9 |
| 20260901172516 | 82 | 90 | 2.6 | 4.3 | 0.00 | 0.01 | 0.01 | 75 | 1014.9 |
| 20260901171515 | 82 | 90 | 0.9 | 2.6 | 0.00 | 0.01 | 0.01 | 72 | 1015.4 |
| 20260901170536 | 81 | 45 | 0.9 | 3.5 | 0.00 | 0.01 | 0.01 | 70 | 1015.3 |
| 20260901165515 | 81 | 45 | 1.7 | 3.5 | 0.00 | 0.01 | 0.01 | 73 | 1015.3 |
| 20260901164536 | 81 | 68 | 3.5 | 6.1 | 0.00 | 0.01 | 0.01 | 72 | 1015.3 |
| 20260901163516 | 80 | 68 | 3.5 | 5.2 | 0.00 | 0.01 | 0.01 | 73 | 1015.2 |
| 20260901162516 | 80 | 68 | 1.7 | 4.3 | 0.00 | 0.01 | 0.01 | 76 | 1015.3 |
| 20260901161516 | 79 | 45 | 2.6 | 4.3 | 0.00 | 0.01 | 0.01 | 77 | 1015.3 |
| 20260901160515 | 80 | 68 | 2.6 | 5.2 | 0.00 | 0.01 | 0.01 | 74 | 1015.5 |
| 20260901155516 | 79 | 90 | 0.9 | 3.5 | 0.00 | 0.01 | 0.01 | 76 | 1015.5 |
| 20260901154540 | 79 | 0.0 | 1.7 | 0.00 | 0.01 | 0.01 | 77 | 1015.5 | |
| 20260901153515 | 78 | 68 | 1.7 | 3.5 | 0.00 | 0.01 | 0.01 | 80 | 1015.4 |
| 20260901152536 | 77 | 68 | 0.9 | 2.6 | 0.00 | 0.01 | 0.01 | 80 | 1015.5 |
| 20260901151517 | 77 | 0.0 | 1.7 | 0.00 | 0.01 | 0.01 | 84 | 1015.4 | |
| 20260901150558 | 75 | 0.0 | 0.9 | 0.00 | 0.01 | 0.01 | 86 | 1015.3 | |
| 20260901145517 | 75 | 0.0 | 1.7 | 0.00 | 0.01 | 0.01 | 88 | 1015.3 | |
| 20260901144517 | 73 | 0.0 | 1.7 | 0.00 | 0.01 | 0.01 | 89 | 1015.2 | |
| 20260901143517 | 73 | 0.0 | 1.7 | 0.00 | 0.01 | 0.01 | 91 | 1015.2 | |
| 20260901142537 | 72 | 0.0 | 0.0 | 0.00 | 0.01 | 0.01 | 94 | 1015.3 | |
| 20260901141537 | 71 | 0.0 | 0.0 | 0.00 | 0.01 | 0.01 | 95 | 1015.4 | |
| 20260901140522 | 70 | 0.0 | 0.0 | 0.00 | 0.01 | 0.01 | 96 | 1015.3 | |
| 20260901135518 | 69 | 0.0 | 0.0 | 0.00 | 0.01 | 0.01 | 97 | 1015.6 | |
| 20260901134517 | 69 | 0.0 | 0.0 | 0.00 | 0.01 | 0.01 | 97 | 1015.6 | |
| 20260901133517 | 68 | 0.0 | 0.0 | 0.00 | 0.01 | 0.01 | 98 | 1015.7 | |
| 20260901132518 | 66 | 0.0 | 0.0 | 0.00 | 0.01 | 0.01 | 98 | 1015.6 | |
| 20260901131517 | 65 | 0.0 | 0.0 | 0.00 | 0.01 | 0.01 | 98 | 1015.6 | |
| 20260901130517 | 64 | 0.0 | 0.0 | 0.00 | 0.01 | 0.01 | 98 | 1015.4 | |
| 20260901125538 | 62 | 0.0 | 0.0 | 0.00 | 0.01 | 0.01 | 98 | 1015.3 | |
| 20260901124538 | 62 | 0.0 | 0.0 | 0.00 | 0.01 | 0.01 | 98 | 1015.2 | |
| 20260901123557 | 62 | 0.0 | 0.0 | 0.00 | 0.01 | 0.01 | 98 | 1015.0 | |
| 20260901122517 | 62 | 0.0 | 0.0 | 0.01 | 0.01 | 0.01 | 98 | 1015.0 | |
| 20260901121518 | 61 | 0.0 | 0.0 | 0.01 | 0.01 | 0.01 | 98 | 1014.8 | |
| 20260901120518 | 61 | 0.0 | 0.0 | 0.01 | 0.01 | 0.01 | 98 | 1014.8 | |
| 20260901115519 | 60 | 0.0 | 0.0 | 0.01 | 0.01 | 0.01 | 98 | 1014.7 | |
| 20260901114537 | 60 | 0.0 | 0.0 | 0.01 | 0.01 | 0.01 | 98 | 1014.8 | |
| 20260901113518 | 60 | 0.0 | 0.9 | 0.01 | 0.01 | 0.01 | 98 | 1014.7 | |
| 20260901112517 | 60 | 0 | 1.7 | 2.6 | 0.00 | 0.00 | 0.00 | 98 | 1014.8 |
| 20260901111517 | 61 | 0.0 | 1.7 | 0.00 | 0.00 | 0.00 | 98 | 1015.4 | |
| 20260901110538 | 60 | 0.0 | 0.0 | 0.00 | 0.00 | 0.00 | 98 | 1014.7 | |
| 20260901105517 | 60 | 0.0 | 0.0 | 0.00 | 0.00 | 0.00 | 98 | 1014.7 | |
| 20260901104517 | 61 | 0.0 | 0.0 | 0.00 | 0.00 | 0.00 | 98 | 1014.7 | |
| 20260901103538 | 61 | 0.0 | 0.0 | 0.00 | 0.00 | 0.00 | 98 | 1014.6 | |
| 20260901102516 | 60 | 0.0 | 0.0 | 0.00 | 0.00 | 0.00 | 98 | 1014.6 | |
| 20260901101517 | 62 | 0.0 | 0.0 | 0.00 | 0.00 | 0.00 | 98 | 1014.5 | |
| 20260901100557 | 61 | 0.0 | 0.0 | 0.00 | 0.00 | 0.00 | 98 | 1014.5 | |
| 20260901095517 | 61 | 0.0 | 0.0 | 0.00 | 0.00 | 0.00 | 98 | 1014.4 | |
| 20260901094516 | 61 | 0.0 | 0.0 | 0.00 | 0.00 | 0.00 | 97 | 1014.5 | |
| 20260901093516 | 61 | 0.0 | 0.0 | 0.00 | 0.00 | 0.00 | 98 | 1014.5 | |
| 20260901092536 | 61 | 0.0 | 0.0 | 0.00 | 0.00 | 0.00 | 98 | 1014.5 | |
| 20260901091517 | 61 | 0.0 | 0.0 | 0.00 | 0.00 | 0.00 | 98 | 1014.3 | |
| 20260901090516 | 61 | 0.0 | 0.0 | 0.00 | 0.00 | 0.00 | 97 | 1014.2 | |
| 20260901085516 | 62 | 0.0 | 0.0 | 0.00 | 0.00 | 0.00 | 97 | 1014.2 | |
| 20260901084517 | 61 | 0.0 | 0.0 | 0.00 | 0.00 | 0.00 | 97 | 1014.2 | |
| 20260901083517 | 62 | 0 | 0.9 | 1.7 | 0.00 | 0.00 | 0.00 | 97 | 1014.3 |
| 20260901082516 | 62 | 0 | 1.7 | 2.6 | 0.00 | 0.00 | 0.00 | 97 | 1014.4 |
| 20260901081536 | 62 | 0.0 | 1.7 | 0.00 | 0.00 | 0.00 | 97 | 1014.5 | |
| 20260901080517 | 61 | 0 | 1.7 | 2.6 | 0.00 | 0.00 | 0.00 | 97 | 1014.3 |
| 20260901075517 | 61 | 0 | 0.9 | 1.7 | 0.00 | 0.00 | 0.00 | 97 | 1014.3 |
| 20260901074516 | 62 | 0.0 | 0.0 | 0.00 | 0.00 | 0.00 | 97 | 1014.4 | |
| 20260901073516 | 62 | 0.0 | 0.9 | 0.00 | 0.00 | 0.00 | 97 | 1014.2 | |
| 20260901072516 | 62 | 0.0 | 0.0 | 0.00 | 0.00 | 0.00 | 96 | 1014.4 | |
| 20260901071536 | 62 | 0.0 | 0.0 | 0.00 | 0.00 | 0.00 | 97 | 1014.4 | |
| 20260901070518 | 62 | 0.0 | 0.9 | 0.00 | 0.00 | 0.00 | 97 | 1014.5 | |
| 20260901065519 | 62 | 0.0 | 0.9 | 0.00 | 0.00 | 0.00 | 97 | 1014.5 | |
| 20260901064516 | 62 | 0.0 | 0.0 | 0.00 | 0.00 | 0.00 | 96 | 1014.5 | |
| 20260901063554 | 62 | 0.0 | 0.0 | 0.00 | 0.00 | 0.00 | 95 | 1014.6 | |
| 20260901062536 | 63 | 0 | 1.7 | 2.6 | 0.00 | 0.00 | 0.00 | 96 | 1014.7 |
| 20260901061516 | 64 | 0 | 1.7 | 2.6 | 0.00 | 0.00 | 0.00 | 96 | 1014.6 |
| 20260901060520 | 64 | 0 | 1.7 | 2.6 | 0.00 | 0.00 | 0.00 | 96 | 1014.7 |
| 20260901055521 | 64 | 0 | 1.7 | 2.6 | 0.00 | 0.00 | 0.00 | 96 | 1014.5 |
| 20260901054517 | 63 | 0 | 0.9 | 1.7 | 0.00 | 0.00 | 0.00 | 96 | 1014.5 |
| 20260901053518 | 63 | 0 | 1.7 | 3.5 | 0.00 | 0.00 | 0.00 | 96 | 1014.4 |
| 20260901052537 | 63 | 0 | 1.7 | 2.6 | 0.00 | 0.00 | 0.00 | 96 | 1014.3 |
| 20260901051518 | 63 | 0.0 | 0.0 | 0.00 | 0.00 | 0.00 | 95 | 1014.4 | |
| 20260901050536 | 63 | 0.0 | 0.9 | 0.00 | 0.00 | 0.00 | 95 | 1014.4 | |
| 20260901045517 | 63 | 0.0 | 0.0 | 0.00 | 0.00 | 0.00 | 95 | 1014.2 | |
| 20260901044518 | 63 | 0.0 | 0.0 | 0.00 | 0.00 | 0.00 | 95 | 1014.2 | |
| 20260901043522 | 64 | 0.0 | 0.0 | 0.00 | 0.00 | 0.00 | 95 | 1014.1 | |
| 20260901042517 | 64 | 0.0 | 0.0 | 0.00 | 0.00 | 0.00 | 95 | 1014.0 | |
| 20260901041517 | 64 | 0.0 | 0.0 | 0.00 | 0.00 | 0.00 | 94 | 1013.9 | |
| 20260901040538 | 66 | 0 | 1.7 | 2.6 | 0.00 | 0.00 | 0.00 | 95 | 1013.9 |
| 20260901035517 | 65 | 0 | 0.9 | 2.6 | 0.00 | 0.00 | 0.00 | 94 | 1013.9 |
| 20260901034517 | 66 | 0 | 0.9 | 1.7 | 0.00 | 0.00 | 0.00 | 93 | 1013.8 |
| 20260901033537 | 66 | 0 | 0.9 | 1.7 | 0.00 | 0.00 | 0.00 | 94 | 1013.8 |
| 20260901032517 | 65 | 0.0 | 0.9 | 0.00 | 0.00 | 0.00 | 93 | 1013.6 | |
| 20260901031517 | 66 | 0.0 | 1.7 | 0.00 | 0.00 | 0.00 | 91 | 1013.7 | |
| 20260901030527 | 68 | 0.0 | 1.7 | 0.00 | 0.00 | 0.00 | 90 | 1013.7 | |
| 20260901025517 | 70 | 0.0 | 0.0 | 0.00 | 0.00 | 0.00 | 89 | 1013.4 | |
| 20260901024517 | 69 | 0.0 | 0.0 | 0.00 | 0.00 | 0.00 | 91 | 1013.4 | |
| 20260901023517 | 69 | 0.0 | 0.0 | 0.00 | 0.00 | 0.00 | 92 | 1013.3 | |
| 20260901022517 | 69 | 0.0 | 0.0 | 0.00 | 0.00 | 0.00 | 92 | 1013.4 | |
| 20260901021517 | 69 | 0.0 | 0.0 | 0.00 | 0.00 | 0.00 | 91 | 1013.3 | |
| 20260901020517 | 70 | 0.0 | 0.0 | 0.00 | 0.00 | 0.00 | 87 | 1013.3 | |
| 20260901015519 | 72 | 0.0 | 0.9 | 0.00 | 0.00 | 0.00 | 83 | 1013.4 | |
| 20260901014522 | 73 | 0 | 1.7 | 1.7 | 0.00 | 0.00 | 0.00 | 83 | 1013.5 |
| 20260901013517 | 73 | 0 | 1.7 | 1.7 | 0.00 | 0.00 | 0.00 | 81 | 1013.2 |
| 20260901012518 | 74 | 0 | 1.7 | 2.6 | 0.00 | 0.00 | 0.00 | 82 | 1013.3 |
| 20260901011516 | 75 | 0 | 1.7 | 1.7 | 0.00 | 0.00 | 0.00 | 79 | 1013.4 |
| 20260901010517 | 75 | 0 | 1.7 | 1.7 | 0.00 | 0.00 | 0.00 | 80 | 1013.4 |
| 20260901005516 | 76 | 0 | 1.7 | 2.6 | 0.00 | 0.00 | 0.00 | 77 | 1013.2 |
| 20260901004516 | 76 | 0 | 1.7 | 2.6 | 0.00 | 0.00 | 0.00 | 80 | 1013.1 |
| 20260901003516 | 77 | 0 | 1.7 | 2.6 | 0.00 | 0.00 | 0.00 | 76 | 1013.2 |
| 20260901002517 | 78 | 0 | 0.9 | 1.7 | 0.00 | 0.00 | 0.00 | 76 | 1013.1 |
| 20260901001516 | 78 | 338 | 3.5 | 5.2 | 0.00 | 0.00 | 0.00 | 74 | 1012.9 |
| 20260901000516 | 79 | 338 | 2.6 | 3.5 | 0.00 | 0.00 | 0.00 | 75 | 1012.9 |
| 20260831235522 | 79 | 338 | 3.5 | 4.3 | 0.00 | 0.00 | 0.00 | 75 | 1013.0 |
| 20260831234537 | 81 | 338 | 2.6 | 3.5 | 0.00 | 0.00 | 0.00 | 71 | 1013.1 |
| 20260831233542 | 81 | 338 | 2.6 | 4.3 | 0.00 | 0.00 | 0.00 | 68 | 1013.2 |
| 20260831232516 | 82 | 338 | 3.5 | 5.2 | 0.00 | 0.00 | 0.00 | 66 | 1013.1 |
| 20260831231516 | 82 | 0 | 3.5 | 7.0 | 0.00 | 0.00 | 0.00 | 66 | 1013.2 |
| 20260831230536 | 82 | 0 | 5.2 | 7.8 | 0.00 | 0.00 | 0.00 | 63 | 1013.0 |
| 20260831225516 | 83 | 338 | 7.0 | 9.6 | 0.00 | 0.00 | 0.00 | 63 | 1013.1 |
| 20260831224516 | 83 | 338 | 7.0 | 10.4 | 0.00 | 0.00 | 0.00 | 64 | 1013.1 |
| 20260831223516 | 84 | 315 | 5.2 | 7.8 | 0.00 | 0.00 | 0.00 | 61 | 1013.1 |
| 20260831222516 | 84 | 338 | 7.0 | 8.7 | 0.00 | 0.00 | 0.00 | 62 | 1013.0 |
| 20260831221516 | 85 | 338 | 6.1 | 8.7 | 0.00 | 0.00 | 0.00 | 59 | 1013.1 |
| 20260831220516 | 85 | 338 | 7.0 | 9.6 | 0.00 | 0.00 | 0.00 | 59 | 1013.0 |
| 20260831215516 | 86 | 338 | 5.2 | 8.7 | 0.00 | 0.00 | 0.00 | 58 | 1013.0 |
| 20260831214517 | 85 | 338 | 3.5 | 5.2 | 0.00 | 0.00 | 0.00 | 58 | 1013.1 |
| 20260831213516 | 85 | 315 | 5.2 | 7.8 | 0.00 | 0.00 | 0.00 | 54 | 1012.9 |
| 20260831212516 | 86 | 338 | 6.1 | 7.8 | 0.00 | 0.00 | 0.00 | 56 | 1012.7 |
| 20260831211536 | 85 | 338 | 4.3 | 7.0 | 0.00 | 0.00 | 0.00 | 57 | 1012.8 |
| 20260831210516 | 86 | 338 | 5.2 | 7.8 | 0.00 | 0.00 | 0.00 | 54 | 1012.6 |
| 20260831205516 | 86 | 0 | 6.1 | 8.7 | 0.00 | 0.00 | 0.00 | 57 | 1012.7 |
| 20260831204516 | 86 | 315 | 6.1 | 10.4 | 0.00 | 0.00 | 0.00 | 54 | 1012.6 |
| 20260831203517 | 86 | 338 | 5.2 | 8.7 | 0.00 | 0.00 | 0.00 | 55 | 1012.7 |